Voltar ao catálogo

STARLINK-37449

AtivoComunicaçõesSSO
NORAD 69488·PAYLOAD·🇺🇸 United States

Lançado Jun 11, 2026 de Vandenberg Space Force Base

Loading…

Próximas Passagens (próximas 24 horas)

TLE

AtualizadoSource: CelesTrak SupGP

Época: Sep 14, 2026, 22:40 UTC

1 69488C 26131L   26257.94493056  .00029527  00000+0  91652-3 0  2577
2 69488  97.2840 278.8897 0001586  89.4968   1.7602 15.33425856    19

Acompanhe STARLINK-37449 em tempo real com AllMySat

Download on the App Store